{"data":{"norad_id":66973,"epoch":"2026-09-20T13:21:58.722624Z","epoch_age_seconds":76333,"freshness":"FRESH","line1":"1 66973U 25288Q   26263.55692966  .00010102  00000+0  37604-3 0  9999","line2":"2 66973  43.0013   2.6198 0000923 259.7414 100.3334 15.27586119 45093","mean_motion":15.27586119,"eccentricity":9.23e-5,"inclination_deg":43.0013,"raan_deg":2.6198,"arg_perigee_deg":259.7414,"mean_anomaly_deg":100.3334,"bstar":0.00037604,"rev_number":4509,"period_min":94.266371112528,"perigee_km":482.39748782801,"apogee_km":483.66405939902,"semimajor_km":6861.1677736135,"source":"CELESTRAK","updated_at":"2026-09-21T09:00:36.064876Z"}}